Start_Date,Finish_Date,Interest_Rate
1994-01-01,1994-04-30,0.08500
1994-05-01,1994-08-31,0.09750
1994-09-01,1994-12-31,0.10250
1995-01-01,1995-04-30,0.11000
1995-05-01,1995-08-31,0.12750
1995-09-01,1995-12-31,0.11250
1996-01-01,1996-04-30,0.10750
1996-05-01,1996-08-31,0.09750
1996-09-01,1996-12-31,0.09000
1997-01-01,1997-04-30,0.07750
1997-05-01,1997-08-31,0.07750
1997-09-01,1997-12-31,0.07750
1998-01-01,1998-04-30,0.09000
1998-05-01,1998-08-31,0.09500
1998-09-01,1998-12-31,0.09500
1999-01-01,1999-04-30,0.09750
1999-05-01,1999-08-31,0.09500
1999-09-01,1999-12-31,0.09250
2000-01-01,2000-04-30,0.09500
2000-05-01,2000-08-31,0.10000
2000-09-01,2000-12-31,0.10500
2001-01-01,2001-04-30,0.10500
2001-05-01,2001-08-31,0.09750
2001-09-01,2001-12-31,0.09000
2002-01-01,2002-04-30,0.07000
2002-05-01,2002-08-31,0.06750
2002-09-01,2002-12-31,0.07500
2003-01-01,2003-04-30,0.07500
2003-05-01,2003-08-31,0.07750
2003-09-01,2003-12-31,0.07750
2004-01-01,2004-04-30,0.07500
2004-05-01,2004-08-31,0.07000
2004-09-01,2004-12-31,0.06750
2005-01-01,2005-04-30,0.07250
2005-05-01,2005-08-31,0.07250
2005-09-01,2005-12-31,0.07250
2006-01-01,2006-04-30,0.08000
2004-05-01,2006-08-31,0.08500
2006-09-01,2006-12-31,0.09000
2007-01-01,2007-04-30,0.09000
2007-05-01,2007-08-31,0.09000
2007-09-01,2007-12-31,0.09250
2008-01-01,2008-04-30,0.09000
2008-05-01,2008-08-31,0.08250
2008-09-01,2008-12-31,0.07750
2009-01-01,2009-04-30,0.06500
2009-05-01,2009-08-31,0.05500
2009-09-01,2009-12-31,0.05250
2010-01-01,2010-04-30,0.05250
2010-05-01,2010-08-31,0.05250
2010-09-01,2010-12-31,0.05750
2011-01-01,2011-04-30,0.06000
2011-05-01,2011-08-31,0.06000
2011-09-01,2011-12-31,0.06000
2012-01-01,2012-04-30,0.06000
2012-05-01,2012-08-31,0.06000
,,
,,
Notes:,,
Footnote:,,
These rates are established under Section 11(3) of the Taxation (Rural Area) Act.,,
"The rates are also applicable from July 23, 1992 for the following:",,
,,
Section 269 - Bylaw Compliance - Action in Default,,
Section 349 - Golf Course/Cemetery Agreement Termination,,
Section 412 - Tax Sale - Sale of Land Purchased by Municipality,,
Section 417 - Tax Sale - Redemption,,
